Theta_e
305 306 306 305 305 306 305 306 303 306 307 312 322 329 334 336 337 338 339 340 343 346 349 351 349 352 353 353 352 357 354 356 355 360 364 367 368 369 370 371 371 372 370 370
304 306 305 302 305 305 306 306 306 307 306 314 324 332 334 334 334 335 336 336 339 342 344 346 348 347 351 350 354 352 352 348 357 358 357 362 358 363 365 367 368 370 369 369
300 306 305 300 304 305 307 309 308 304 311 323 327 330 332 332 332 332 334 335 337 339 340 342 343 344 343 345 346 348 353 352 350 353 357 359 354 351 353 365 360 363 368 368
302 305 296 305 311 309 307 309 312 314 319 324 328 332 335 337 335 332 335 335 336 338 340 342 345 346 344 344 346 343 342 345 349 348 350 355 361 361 355 358 363 366 365 369
300 300 304 305 311 308 306 306 315 316 322 326 330 332 331 336 335 334 335 339 337 339 341 342 341 343 343 342 341 342 339 341 344 347 349 352 353 358 363 360 362 365 362 355
303 297 296 306 311 315 313 304 322 323 326 328 329 321 326 335 336 334 337 338 338 338 339 338 339 339 337 335 336 337 337 339 343 349 350 351 355 355 356 361 362 358 359 357
300 299 303 310 314 319 304 306 322 325 328 330 326 327 334 336 337 339 339 338 339 336 334 335 336 334 331 331 330 333 337 339 344 347 349 352 356 358 357 362 358 357 357 357
300 297 296 315 318 310 315 323 324 326 328 330 332 332 334 335 336 334 333 333 334 334 333 335 335 333 332 330 332 332 336 338 340 343 344 347 351 353 355 360 354 354 355 352
303 302 314 319 320 324 322 320 323 327 331 332 330 331 332 332 331 331 332 333 334 332 332 332 334 333 330 330 331 330 331 335 339 341 342 343 345 347 351 359 360 357 364 364
306 308 311 315 321 323 324 323 329 331 333 332 329 329 328 329 329 329 331 330 332 330 329 327 328 330 329 328 330 330 328 332 336 338 337 340 339 336 339 340 345 350 350 349
307 311 313 317 320 323 325 328 329 333 332 329 330 328 327 328 328 329 330 330 330 329 329 328 329 327 326 327 329 329 330 329 331 333 336 335 336 328 327 332 317 328 340 343
304 314 315 316 322 326 325 327 330 328 324 327 326 329 327 327 329 328 327 328 328 328 328 327 326 325 326 327 329 329 327 326 325 328 331 332 332 333 312 309 306 302 302 309
310 315 317 318 322 324 324 327 329 327 329 321 320 322 324 322 325 323 327 327 328 327 327 326 326 324 325 326 328 329 327 327 326 324 327 328 329 329 325 323 308 306 303 302
315 316 315 317 317 323 326 325 323 326 323 323 323 324 324 323 323 325 326 327 329 328 327 326 325 323 323 324 325 327 327 313 325 326 327 328 329 327 326 324 328 331 307 311
314 316 317 319 322 324 324 322 320 319 320 320 322 320 321 320 321 324 327 327 327 327 325 325 323 321 322 322 322 323 324 323 323 325 327 324 328 326 326 323 323 325 329 319
313 314 316 318 319 320 319 317 314 314 316 318 319 320 321 322 324 324 325 326 324 322 323 323 321 320 320 321 320 320 321 316 317 322 324 325 324 323 323 320 319 319 319 319
310 311 314 316 317 318 316 316 315 316 317 316 318 319 321 322 322 322 323 324 324 323 323 321 320 321 319 320 320 319 319 320 314 321 320 319 320 317 318 318 314 316 314 311
317 318 319 320 317 316 317 317 317 318 317 319 320 320 320 321 320 322 321 322 323 322 322 323 322 320 319 318 318 318 317 318 318 316 316 315 314 315 315 314 314 311 311 310
318 320 320 319 319 319 320 318 317 318 319 320 320 320 321 322 322 322 322 321 320 319 320 322 313 318 318 314 313 316 315 316 315 312 311 309 311 311 311 311 311 309 307 306
316 317 318 320 322 321 317 316 316 317 318 319 320 320 320 321 323 322 319 317 318 318 321 318 318 317 316 315 311 314 313 312 309 308 307 306 307 307 308 304 306 307 304 305
314 315 316 317 317 316 314 315 316 316 318 319 319 319 319 322 322 321 317 314 317 316 317 314 316 314 313 313 313 312 311 308 305 303 303 303 304 305 305 304 304 303 303 303
315 315 315 314 313 314 315 316 317 318 318 318 319 320 319 320 320 319 319 316 316 307 316 316 314 310 312 311 312 311 309 306 303 303 302 301 302 301 302 301 300 301 299 299
314 314 314 314 315 317 318 318 318 319 319 320 319 320 319 320 320 316 312 316 315 311 315 315 309 309 309 316 313 311 310 309 304 303 302 302 301 301 300 299 299 299 297 298
316 316 317 318 318 317 316 317 318 319 320 320 321 322 320 316 317 317 317 308 307 309 313 313 311 307 305 315 313 311 309 307 306 305 303 299 301 301 299 299 299 299 299 297
315 316 316 314 314 314 316 318 318 319 319 319 320 322 322 320 316 314 316 313 304 307 313 304 306 307 312 315 314 312 310 307 305 304 304 302 301 300 300 302 301 299 298 297
312 312 313 315 315 315 315 316 315 317 317 317 320 320 320 317 314 314 314 311 313 308 314 313 313 312 314 313 313 312 311 308 306 303 303 304 302 301 301 300 301 301 300 299
308 305 307 307 310 311 314 314 315 315 314 315 315 319 318 311 310 309 307 311 312 312 313 315 313 310 312 314 312 312 311 310 305 307 304 302 302 301 302 302 302 301 300 300
Wind_Speed
18 18 13 12 15 16 18 18 19 15 16 14 13 11 11 10 9 10 9 7 8 8 7 8 11 12 10 6 4 8 6 7 5 8 9 9 8 9 11 11 11 11 12 13
21 18 16 20 17 15 16 16 9 12 12 4 4 11 11 13 11 11 9 8 10 8 10 7 10 9 10 7 8 8 6 5 7 3 5 8 8 8 11 11 9 11 11 10
18 19 20 23 20 17 15 12 14 13 9 8 12 14 15 15 13 10 7 7 7 6 7 6 8 3 5 6 3 9 6 6 5 7 9 8 8 9 10 13 9 11 10 10
15 16 30 12 15 21 20 15 14 5 5 8 11 12 15 15 13 11 12 7 7 7 5 6 7 7 7 3 8 7 6 7 6 4 7 11 12 12 9 12 13 9 9 8
15 18 18 17 7 12 13 17 14 11 8 10 11 11 11 12 11 12 11 11 9 8 7 7 8 5 6 10 11 10 10 7 7 8 7 10 11 11 13 9 10 7 4 3
13 19 25 17 16 14 11 18 12 14 13 14 16 13 11 14 16 14 14 12 11 10 10 10 9 9 10 12 13 13 10 9 4 7 9 9 10 9 9 13 8 7 6 4
16 16 15 1 7 12 16 7 17 16 13 16 17 2 21 18 16 15 13 13 13 12 11 10 10 10 14 13 13 10 10 9 9 7 9 10 9 10 7 9 6 6 8 8
14 16 22 9 12 13 1 4 8 11 13 17 17 11 19 19 16 15 15 14 13 12 12 10 10 10 11 11 8 8 8 8 9 7 7 8 11 11 10 5 5 5 6 8
9 12 4 7 5 6 2 3 1 8 10 14 13 17 20 19 16 13 12 10 11 10 11 10 9 8 7 6 6 7 8 7 8 8 7 7 9 10 9 6 6 9 5 4
10 15 11 5 6 5 2 2 2 6 12 16 17 19 19 18 14 11 11 10 10 9 11 8 7 6 6 5 5 5 6 7 6 7 6 7 7 8 9 9 9 8 4 6
13 10 7 10 7 6 5 5 5 7 12 14 18 18 17 15 13 11 8 6 8 9 10 8 7 7 5 5 6 6 5 5 7 7 7 8 5 4 5 5 4 7 8 7
5 10 12 12 12 11 10 11 10 12 13 15 15 14 13 14 8 12 9 7 6 7 9 9 8 8 7 7 8 8 8 6 5 7 6 6 7 7 5 4 5 6 7 6
11 11 8 8 14 12 8 11 14 15 16 15 14 11 9 9 7 9 5 7 6 7 8 9 8 10 9 9 9 8 8 9 8 5 5 6 6 7 8 4 6 8 9 5
12 10 15 10 7 10 11 15 19 17 14 12 15 21 19 12 11 12 11 8 8 7 9 9 8 10 10 9 8 7 8 5 7 7 7 6 6 6 5 5 6 4 8 6
13 15 14 11 13 14 15 15 18 15 15 14 12 14 15 14 12 10 8 8 7 8 7 8 8 8 8 9 9 8 7 6 9 9 7 7 6 6 6 5 4 5 4 5
11 12 14 14 17 17 17 16 14 13 14 13 12 11 10 10 10 9 7 6 5 7 6 6 6 6 5 6 8 7 7 6 5 8 8 8 6 7 5 4 2 3 4 6
13 10 10 12 17 19 17 14 11 11 11 11 11 11 10 10 10 8 7 6 6 5 5 5 5 4 5 7 8 6 6 6 5 7 7 7 8 6 7 5 5 2 2 3
2 6 11 14 16 17 14 13 11 12 11 10 10 10 10 10 9 8 7 7 7 6 6 6 5 4 5 9 9 7 8 7 6 7 7 7 7 8 6 5 5 3 3 4
11 14 12 13 11 14 14 13 12 11 10 10 10 10 9 8 8 9 8 7 6 6 5 6 4 2 7 9 9 7 8 9 8 8 8 8 6 6 6 5 4 3 2 3
11 12 10 13 12 12 13 12 13 11 9 9 9 9 9 7 8 9 7 6 5 7 6 7 4 6 5 7 7 7 9 9 8 7 7 7 7 6 5 4 3 2 3 2
10 14 9 13 12 11 11 11 11 10 10 10 9 9 9 9 10 9 8 6 7 6 7 5 4 5 6 6 6 8 8 7 6 7 7 7 7 5 4 3 3 3 2 3
11 14 14 13 11 11 9 9 8 9 9 10 10 10 10 10 10 9 6 4 8 7 7 6 7 7 5 7 7 8 8 7 6 6 6 6 5 5 4 3 3 3 3 5
11 12 13 12 12 12 10 8 8 9 9 9 10 10 10 9 10 9 8 4 6 7 5 5 13 9 6 1 5 7 9 8 7 6 6 5 5 5 4 4 4 5 4 5
12 12 13 12 11 12 10 7 7 6 8 8 9 10 9 8 7 6 7 10 5 8 6 9 9 10 11 1 4 6 8 10 8 7 5 7 6 5 5 4 5 5 5 6
10 10 9 10 10 8 10 8 8 8 9 8 8 10 9 6 6 3 7 8 9 8 6 11 11 10 9 2 2 5 5 7 8 6 7 6 6 5 5 4 4 5 7 4
7 6 6 5 6 7 7 8 7 7 6 7 7 7 8 8 5 5 5 4 7 5 7 8 8 8 5 3 3 4 5 6 5 9 10 9 7 6 6 6 5 5 4 4
6 5 6 7 6 5 2 3 5 7 6 5 6 6 9 6 6 5 6 8 6 4 3 1 4 5 4 2 5 4 4 5 5 6 6 7 6 4 5 5 5 4 5 3
Wind_Direction
247 261 257 247 237 220 232 247 258 269 266 248 184 186 179 149 159 153 135 111 103 108 104 110 110 105 104 104 51 95 105 93 38 333 309 288 270 276 275 271 271 264 265 265
256 250 244 252 244 239 225 243 249 256 261 261 170 168 162 170 175 162 152 123 107 97 84 80 72 86 97 81 91 81 72 28 46 53 328 311 309 290 295 277 257 257 243 244
250 251 244 240 239 234 225 226 234 241 241 137 168 179 180 171 173 175 181 161 169 138 87 82 81 82 111 104 176 88 58 32 21 35 317 288 269 303 291 272 283 279 261 243
249 246 243 251 238 226 232 237 234 242 201 197 189 180 173 180 189 179 197 146 140 143 137 123 115 114 139 106 69 96 82 58 342 21 302 296 289 268 266 277 286 275 267 257
240 238 252 241 194 205 225 233 218 217 189 185 163 161 178 183 172 176 156 141 134 135 119 95 76 68 74 70 67 44 35 49 3 305 307 293 284 295 291 270 276 276 186 186
236 243 243 237 205 213 229 243 156 201 185 172 163 196 178 171 157 155 154 151 141 129 106 92 78 67 56 45 42 28 11 349 7 323 293 291 288 281 275 271 266 248 225 231
234 243 252 337 119 155 206 268 163 179 179 181 194 303 134 158 161 153 142 136 125 110 93 77 70 63 63 46 35 4 346 338 335 335 317 313 310 308 297 265 280 250 238 237
232 238 243 146 153 209 84 113 161 189 185 191 196 145 149 151 155 151 142 145 131 115 101 84 68 59 49 43 11 357 351 342 323 343 331 328 336 331 323 280 260 251 224 233
251 226 27 190 350 95 302 314 287 213 197 186 176 166 152 143 151 150 138 129 119 113 106 93 76 58 54 22 351 341 332 331 333 327 343 353 348 340 325 329 278 276 272 251
192 220 243 243 263 277 278 242 229 194 173 163 175 159 144 136 140 140 140 128 124 126 117 110 97 81 63 15 347 335 341 326 321 317 341 354 2 356 341 343 333 321 320 300
224 244 196 214 208 228 149 149 150 159 159 176 152 149 141 137 129 132 120 138 132 133 125 117 99 89 65 37 3 355 359 350 335 329 4 350 9 340 342 4 360 327 333 321
236 177 216 194 190 189 162 136 130 122 108 98 108 115 122 122 140 109 141 147 143 128 120 106 98 82 56 29 17 2 354 8 358 326 343 345 341 339 202 230 298 307 312 322
284 289 236 224 177 196 160 139 137 139 157 148 126 94 82 111 124 85 120 178 151 131 114 98 82 64 41 30 13 358 346 352 337 312 342 327 334 338 334 321 237 271 284 301
295 268 252 219 208 176 160 131 125 139 137 150 136 142 164 152 143 177 180 148 138 110 81 69 58 47 28 18 1 349 334 194 319 333 330 321 334 331 335 330 310 251 247 279
271 239 253 199 144 152 144 139 133 137 138 131 143 137 144 156 149 153 140 129 113 94 81 64 51 41 19 2 352 338 341 352 340 322 323 320 317 325 331 342 349 333 315 233
305 238 231 181 157 154 147 146 136 146 135 141 138 138 138 139 133 134 126 122 142 90 83 83 71 48 11 358 342 335 335 107 322 319 321 319 332 318 323 330 346 352 334 337
236 207 191 193 168 164 158 149 150 144 141 146 136 135 141 141 141 138 130 114 92 113 108 112 91 46 7 358 338 343 328 329 347 312 331 326 315 320 319 323 322 26 339 347
187 269 197 181 165 153 156 143 141 147 151 140 135 141 145 158 152 139 136 132 142 139 127 107 64 53 32 15 343 333 327 322 338 324 315 320 320 312 314 319 321 336 352 335
181 145 137 133 156 148 144 143 144 136 136 140 146 150 153 159 149 143 146 151 144 141 113 101 112 339 25 31 337 331 336 332 340 323 322 322 315 315 310 314 316 327 17 15
158 125 154 153 149 148 139 133 130 135 144 150 151 152 157 158 148 142 148 144 64 70 117 120 122 62 37 42 329 8 2 354 345 333 326 320 317 316 317 314 331 3 42 69
157 143 143 146 139 132 124 132 141 147 151 158 166 164 166 165 151 155 156 162 132 140 106 166 87 79 64 20 17 26 13 5 356 342 337 331 322 321 325 344 357 50 71 59
154 151 149 133 126 122 131 146 155 152 162 164 173 168 167 170 164 169 179 130 144 187 173 144 113 48 73 273 48 34 36 15 2 0 354 343 342 343 356 31 31 51 60 74
133 130 125 126 134 129 133 139 150 161 163 170 175 173 182 164 173 163 164 152 141 186 222 144 125 148 218 17 63 50 36 32 21 15 359 360 5 15 13 43 52 57 30 57
128 130 125 124 137 131 130 141 152 159 166 169 176 173 174 162 157 180 119 127 107 158 243 107 150 177 238 142 75 69 55 40 44 36 24 14 14 31 27 35 52 52 31 51
103 112 128 138 135 125 133 145 143 146 160 161 163 177 172 171 147 169 156 133 139 220 191 121 152 181 232 172 123 94 91 65 65 70 62 41 27 23 16 19 44 60 71 28
80 96 105 99 113 149 145 168 159 151 155 156 157 167 152 129 124 153 159 147 152 189 137 159 158 201 223 208 197 143 129 137 89 60 55 53 38 21 22 20 31 39 52 40
90 101 93 78 64 62 78 76 146 142 162 165 135 155 148 131 147 196 168 159 147 126 114 135 195 186 265 206 197 178 163 161 165 131 101 89 53 38 11 4 7 52 34 8